Time,TemperatureF,DewpointF,PressureIn,WindDirection,WindDirectionDegrees,WindSpeedMPH,WindSpeedGustMPH,Humidity,HourlyPrecipIn,Conditions,Clouds,dailyrainin,SoftwareType,DateUTC
2013-04-02 00:03:00,38.0,27.0,30.11,West,271,4.0,11.0,65,0.00,,,0.02,,2013-04-02 04:03:00,
2013-04-02 00:13:00,38.0,27.0,30.11,West,271,4.0,11.0,65,0.00,,,0.02,,2013-04-02 04:13:00,
2013-04-02 00:23:00,38.0,27.0,30.11,NW,314,5.0,14.0,65,0.00,,,0.02,,2013-04-02 04:23:00,
2013-04-02 00:33:00,38.0,28.0,30.12,NW,310,5.0,9.0,66,0.00,,,0.02,,2013-04-02 04:33:00,
2013-04-02 00:43:00,38.0,28.0,30.12,NW,310,5.0,9.0,66,0.00,,,0.02,,2013-04-02 04:43:00,
2013-04-02 00:53:00,38.0,28.0,30.12,NW,310,5.0,9.0,66,0.00,,,0.02,,2013-04-02 04:53:00,
2013-04-02 01:02:00,37.0,27.0,30.12,West,270,4.0,15.0,66,0.00,,,0.02,,2013-04-02 05:02:00,
2013-04-02 01:12:00,37.0,27.0,30.12,West,270,4.0,15.0,66,0.00,,,0.02,,2013-04-02 05:12:00,
2013-04-02 01:22:00,37.0,27.0,30.12,WNW,300,5.0,11.0,66,0.00,,,0.02,,2013-04-02 05:22:00,
2013-04-02 01:32:00,37.0,27.0,30.12,West,266,3.0,9.0,66,0.00,,,0.02,,2013-04-02 05:32:00,
2013-04-02 01:43:00,37.0,27.0,30.12,West,266,3.0,9.0,66,0.00,,,0.02,,2013-04-02 05:43:00,
2013-04-02 01:52:00,36.0,26.0,30.12,West,281,3.0,9.0,67,0.00,,,0.02,,2013-04-02 05:52:00,
2013-04-02 02:02:00,36.0,26.0,30.12,West,270,2.0,6.0,67,0.00,,,0.02,,2013-04-02 06:02:00,
2013-04-02 02:12:00,36.0,26.0,30.12,West,270,2.0,6.0,67,0.00,,,0.02,,2013-04-02 06:12:00,
2013-04-02 02:22:00,36.0,26.0,30.12,WNW,302,4.0,8.0,67,0.00,,,0.02,,2013-04-02 06:22:00,
2013-04-02 02:32:00,36.0,26.0,30.12,West,275,2.0,7.0,67,0.00,,,0.02,,2013-04-02 06:32:00,
2013-04-02 02:42:00,36.0,26.0,30.12,West,275,2.0,7.0,67,0.00,,,0.02,,2013-04-02 06:42:00,
2013-04-02 02:52:00,35.0,25.0,30.13,WNW,283,2.0,6.0,67,0.00,,,0.02,,2013-04-02 06:52:00,
2013-04-02 03:02:00,35.0,26.0,30.13,WNW,291,1.0,5.0,68,0.00,,,0.02,,2013-04-02 07:02:00,
2013-04-02 03:13:00,35.0,26.0,30.13,WNW,291,1.0,5.0,68,0.00,,,0.02,,2013-04-02 07:13:00,
2013-04-02 03:22:00,34.0,25.0,30.13,WNW,293,0.0,4.0,70,0.00,,,0.02,,2013-04-02 07:22:00,
2013-04-02 03:32:00,32.0,25.0,30.13,WNW,293,0.0,2.0,74,0.00,,,0.02,,2013-04-02 07:32:00,
2013-04-02 03:43:00,32.0,25.0,30.13,WNW,293,0.0,2.0,74,0.00,,,0.02,,2013-04-02 07:43:00,
2013-04-02 03:52:00,33.0,24.0,30.13,WNW,293,1.0,4.0,70,0.00,,,0.02,,2013-04-02 07:52:00,
2013-04-02 04:02:00,33.0,22.0,30.13,West,273,0.0,3.0,64,0.00,,,0.02,,2013-04-02 08:02:00,
2013-04-02 04:13:00,33.0,22.0,30.13,West,273,0.0,3.0,64,0.00,,,0.02,,2013-04-02 08:13:00,
2013-04-02 04:22:00,33.0,22.0,30.14,WNW,286,1.0,3.0,63,0.00,,,0.02,,2013-04-02 08:22:00,
2013-04-02 04:32:00,33.0,22.0,30.14,WNW,286,1.0,3.0,64,0.00,,,0.02,,2013-04-02 08:32:00,
2013-04-02 04:42:00,33.0,22.0,30.14,WNW,286,1.0,3.0,64,0.00,,,0.02,,2013-04-02 08:42:00,
2013-04-02 04:52:00,34.0,22.0,30.14,West,261,2.0,8.0,62,0.00,,,0.02,,2013-04-02 08:52:00,
2013-04-02 05:02:00,34.0,22.0,30.15,West,273,3.0,7.0,61,0.00,,,0.02,,2013-04-02 09:02:00,
2013-04-02 05:13:00,34.0,22.0,30.15,West,273,3.0,7.0,61,0.00,,,0.02,,2013-04-02 09:13:00,
2013-04-02 05:22:00,34.0,22.0,30.16,WNW,292,2.0,8.0,61,0.00,,,0.02,,2013-04-02 09:22:00,
2013-04-02 05:33:00,34.0,22.0,30.16,West,277,2.0,5.0,61,0.00,,,0.02,,2013-04-02 09:33:00,
2013-04-02 05:43:00,34.0,22.0,30.16,West,277,2.0,5.0,61,0.00,,,0.02,,2013-04-02 09:43:00,
2013-04-02 05:52:00,33.0,21.0,30.17,West,274,2.0,7.0,61,0.00,,,0.02,,2013-04-02 09:52:00,
2013-04-02 06:03:00,33.0,22.0,30.17,West,274,3.0,6.0,63,0.00,,,0.02,,2013-04-02 10:03:00,
2013-04-02 06:13:00,33.0,22.0,30.17,West,274,3.0,6.0,63,0.00,,,0.02,,2013-04-02 10:13:00,
2013-04-02 06:24:00,33.0,21.0,30.18,West,277,1.0,8.0,62,0.00,,,0.02,,2013-04-02 10:24:00,
2013-04-02 06:33:00,32.0,21.0,30.18,West,279,1.0,7.0,64,0.00,,,0.02,,2013-04-02 10:33:00,
2013-04-02 06:42:00,32.0,21.0,30.18,West,279,1.0,7.0,64,0.00,,,0.02,,2013-04-02 10:42:00,
2013-04-02 06:52:00,32.0,21.0,30.19,West,279,0.0,3.0,64,0.00,,,0.02,,2013-04-02 10:52:00,
2013-04-02 07:02:00,32.0,22.0,30.20,WNW,290,1.0,7.0,65,0.00,,,0.02,,2013-04-02 11:02:00,
2013-04-02 07:12:00,32.0,22.0,30.20,WNW,290,1.0,7.0,65,0.00,,,0.02,,2013-04-02 11:12:00,
2013-04-02 07:22:00,32.0,22.0,30.21,WSW,252,3.0,5.0,65,0.00,,,0.02,,2013-04-02 11:22:00,
2013-04-02 07:33:00,32.0,21.0,30.22,West,265,1.0,4.0,64,0.00,,,0.02,,2013-04-02 11:33:00,
2013-04-02 07:43:00,32.0,21.0,30.22,West,265,1.0,4.0,64,0.00,,,0.02,,2013-04-02 11:43:00,
2013-04-02 07:52:00,32.0,21.0,30.22,West,274,3.0,5.0,64,0.00,,,0.02,,2013-04-02 11:52:00,
2013-04-02 08:02:00,33.0,21.0,30.23,WSW,253,4.0,8.0,60,0.00,,,0.02,,2013-04-02 12:02:00,
2013-04-02 08:12:00,33.0,21.0,30.23,WSW,253,4.0,8.0,60,0.00,,,0.02,,2013-04-02 12:12:00,
2013-04-02 08:23:00,33.0,21.0,30.23,WSW,253,4.0,8.0,60,0.00,,,0.02,,2013-04-02 12:23:00,
2013-04-02 08:32:00,33.0,21.0,30.25,West,261,4.0,9.0,61,0.00,,,0.02,,2013-04-02 12:32:00,
2013-04-02 08:42:00,33.0,21.0,30.25,West,261,4.0,9.0,61,0.00,,,0.02,,2013-04-02 12:42:00,
2013-04-02 08:53:00,33.0,21.0,30.25,West,275,4.0,9.0,60,0.00,,,0.02,,2013-04-02 12:53:00,
2013-04-02 09:02:00,34.0,21.0,30.25,West,263,6.0,12.0,58,0.00,,,0.02,,2013-04-02 13:02:00,
2013-04-02 09:12:00,34.0,21.0,30.25,West,263,6.0,12.0,58,0.00,,,0.02,,2013-04-02 13:12:00,
2013-04-02 09:22:00,34.0,20.0,30.25,WSW,258,6.0,12.0,56,0.00,,,0.02,,2013-04-02 13:22:00,
2013-04-02 09:33:00,35.0,21.0,30.25,WNW,284,6.0,12.0,56,0.00,,,0.02,,2013-04-02 13:33:00,
2013-04-02 09:42:00,35.0,21.0,30.25,WNW,284,6.0,12.0,56,0.00,,,0.02,,2013-04-02 13:42:00,
2013-04-02 09:52:00,35.0,21.0,30.24,West,265,9.0,14.0,56,0.00,,,0.02,,2013-04-02 13:52:00,
2013-04-02 10:02:00,36.0,21.0,30.25,WNW,292,6.0,14.0,53,0.00,,,0.02,,2013-04-02 14:02:00,
2013-04-02 10:12:00,36.0,21.0,30.25,WNW,292,6.0,14.0,53,0.00,,,0.02,,2013-04-02 14:12:00,
2013-04-02 10:23:00,36.0,21.0,30.25,West,277,5.0,13.0,55,0.00,,,0.02,,2013-04-02 14:23:00,
2013-04-02 10:32:00,36.0,21.0,30.25,WSW,257,7.0,16.0,54,0.00,,,0.02,,2013-04-02 14:32:00,
2013-04-02 10:42:00,36.0,21.0,30.25,WSW,257,7.0,16.0,54,0.00,,,0.02,,2013-04-02 14:42:00,
2013-04-02 10:52:00,37.0,21.0,30.26,West,277,8.0,14.0,53,0.00,,,0.02,,2013-04-02 14:52:00,
2013-04-02 11:02:00,37.0,21.0,30.26,West,280,8.0,16.0,51,0.00,,,0.02,,2013-04-02 15:02:00,
2013-04-02 11:12:00,37.0,21.0,30.26,West,280,8.0,16.0,51,0.00,,,0.02,,2013-04-02 15:12:00,
2013-04-02 11:23:00,38.0,22.0,30.26,North,355,8.0,17.0,51,0.00,,,0.02,,2013-04-02 15:23:00,
2013-04-02 11:33:00,39.0,21.0,30.26,West,271,6.0,14.0,49,0.00,,,0.02,,2013-04-02 15:33:00,
2013-04-02 11:43:00,39.0,21.0,30.26,West,271,6.0,14.0,49,0.00,,,0.02,,2013-04-02 15:43:00,
2013-04-02 11:55:00,39.0,22.0,30.27,WNW,289,6.0,16.0,51,0.00,,,0.02,,2013-04-02 15:55:00,
2013-04-02 12:04:00,39.0,20.0,30.27,West,262,8.0,21.0,46,0.00,,,0.02,,2013-04-02 16:04:00,
2013-04-02 12:13:00,39.0,20.0,30.27,West,262,8.0,21.0,46,0.00,,,0.02,,2013-04-02 16:13:00,
2013-04-02 12:25:00,40.0,19.0,30.26,NW,309,9.0,20.0,43,0.00,,,0.02,,2013-04-02 16:25:00,
2013-04-02 12:38:00,40.0,18.0,30.26,NNW,330,10.0,19.0,40,0.00,,,0.02,,2013-04-02 16:38:00,
2013-04-02 12:44:00,40.0,18.0,30.26,NNW,330,10.0,19.0,40,0.00,,,0.02,,2013-04-02 16:44:00,
2013-04-02 12:53:00,41.0,19.0,30.26,West,272,9.0,16.0,41,0.00,,,0.02,,2013-04-02 16:53:00,
2013-04-02 13:06:00,42.0,19.0,30.26,WNW,294,5.0,15.0,40,0.00,,,0.02,,2013-04-02 17:06:00,
2013-04-02 13:13:00,42.0,19.0,30.26,WNW,294,5.0,15.0,40,0.00,,,0.02,,2013-04-02 17:13:00,
2013-04-02 13:35:00,43.0,20.0,30.25,NNW,340,6.0,13.0,40,0.00,,,0.02,,2013-04-02 17:35:00,
2013-04-02 13:43:00,43.0,20.0,30.25,NNW,340,6.0,13.0,40,0.00,,,0.02,,2013-04-02 17:43:00,
2013-04-02 13:54:00,42.0,16.0,30.24,West,275,5.0,15.0,35,0.00,,,0.01,,2013-04-02 17:54:00,
2013-04-02 14:04:00,44.0,22.0,30.23,WSW,247,6.0,13.0,41,0.00,,,0.01,,2013-04-02 18:04:00,
2013-04-02 14:13:00,44.0,22.0,30.23,WSW,247,6.0,13.0,41,0.00,,,0.01,,2013-04-02 18:13:00,
2013-04-02 14:23:00,44.0,23.0,30.23,ENE,74,5.0,16.0,43,0.00,,,0.01,,2013-04-02 18:23:00,
2013-04-02 14:34:00,45.0,18.0,30.22,SW,229,6.0,14.0,33,0.00,,,0.01,,2013-04-02 18:34:00,
2013-04-02 14:43:00,45.0,18.0,30.22,SW,229,6.0,14.0,33,0.00,,,0.01,,2013-04-02 18:43:00,
2013-04-02 14:54:00,45.0,18.0,30.22,West,274,6.0,14.0,33,0.00,,,0.01,,2013-04-02 18:54:00,
2013-04-02 15:03:00,46.0,16.0,30.21,NNE,26,5.0,13.0,30,0.00,,,0.01,,2013-04-02 19:03:00,
2013-04-02 15:13:00,46.0,16.0,30.21,NNE,26,5.0,13.0,30,0.00,,,0.01,,2013-04-02 19:13:00,
2013-04-02 15:23:00,46.0,18.0,30.21,North,5,5.0,14.0,32,0.00,,,0.01,,2013-04-02 19:23:00,
2013-04-02 15:34:00,46.0,16.0,30.20,West,267,6.0,14.0,30,0.00,,,0.01,,2013-04-02 19:34:00,
2013-04-02 15:45:00,46.0,16.0,30.20,West,267,6.0,14.0,30,0.00,,,0.01,,2013-04-02 19:45:00,
2013-04-02 15:54:00,47.0,20.0,30.19,WSW,244,6.0,12.0,34,0.00,,,0.01,,2013-04-02 19:54:00,
2013-04-02 16:04:00,46.0,16.0,30.19,WSW,258,7.0,13.0,30,0.00,,,0.01,,2013-04-02 20:04:00,
2013-04-02 16:14:00,46.0,16.0,30.19,WSW,258,7.0,13.0,30,0.00,,,0.01,,2013-04-02 20:14:00,
2013-04-02 16:23:00,46.0,18.0,30.19,WSW,257,10.0,19.0,32,0.00,,,0.01,,2013-04-02 20:23:00,
2013-04-02 16:44:00,47.0,17.0,30.19,SW,235,5.0,15.0,30,0.00,,,0.01,,2013-04-02 20:44:00,
2013-04-02 16:53:00,47.0,17.0,30.19,SW,235,5.0,15.0,30,0.00,,,0.01,,2013-04-02 20:53:00,
2013-04-02 17:04:00,47.0,13.0,30.20,West,264,9.0,20.0,25,0.00,,,0.00,,2013-04-02 21:04:00,
2013-04-02 17:13:00,47.0,13.0,30.20,West,264,9.0,20.0,25,0.00,,,0.00,,2013-04-02 21:13:00,
2013-04-02 17:23:00,47.0,13.0,30.19,NNW,335,7.0,16.0,25,0.00,,,0.00,,2013-04-02 21:23:00,
2013-04-02 17:35:00,47.0,16.0,30.19,WNW,284,5.0,15.0,29,0.00,,,0.00,,2013-04-02 21:35:00,
2013-04-02 17:44:00,47.0,16.0,30.19,WNW,284,5.0,15.0,29,0.00,,,0.00,,2013-04-02 21:44:00,
2013-04-02 17:55:00,47.0,15.0,30.19,West,280,8.0,14.0,27,0.00,,,0.00,,2013-04-02 21:55:00,
2013-04-02 18:04:00,47.0,14.0,30.20,West,274,7.0,13.0,26,0.00,,,0.00,,2013-04-02 22:04:00,
2013-04-02 18:14:00,47.0,14.0,30.20,West,274,7.0,13.0,26,0.00,,,0.00,,2013-04-02 22:14:00,
2013-04-02 18:24:00,47.0,13.0,30.19,West,267,6.0,16.0,25,0.00,,,0.00,,2013-04-02 22:24:00,
2013-04-02 18:33:00,47.0,14.0,30.20,SW,236,5.0,10.0,26,0.00,,,0.00,,2013-04-02 22:33:00,
2013-04-02 18:43:00,47.0,14.0,30.20,SW,236,5.0,10.0,26,0.00,,,0.00,,2013-04-02 22:43:00,
2013-04-02 18:53:00,46.0,14.0,30.20,WSW,250,6.0,12.0,27,0.00,,,0.00,,2013-04-02 22:53:00,
2013-04-02 19:03:00,46.0,14.0,30.21,West,274,6.0,13.0,27,0.00,,,0.00,,2013-04-02 23:03:00,
2013-04-02 19:13:00,46.0,14.0,30.21,West,274,6.0,13.0,27,0.00,,,0.00,,2013-04-02 23:13:00,
2013-04-02 19:24:00,46.0,16.0,30.22,WNW,288,2.0,8.0,30,0.00,,,0.00,,2013-04-02 23:24:00,
2013-04-02 19:35:00,45.0,14.0,30.22,West,269,6.0,11.0,28,0.00,,,0.00,,2013-04-02 23:35:00,
2013-04-02 19:43:00,45.0,14.0,30.22,West,269,6.0,11.0,28,0.00,,,0.00,,2013-04-02 23:43:00,
2013-04-02 19:53:00,44.0,13.0,30.23,WNW,291,5.0,10.0,28,0.00,,,0.00,,2013-04-02 23:53:00,
2013-04-02 20:04:00,43.0,13.0,30.23,WNW,290,3.0,7.0,29,0.00,,,0.00,,2013-04-03 00:04:00,
2013-04-02 20:13:00,43.0,13.0,30.23,WNW,290,3.0,7.0,29,0.00,,,0.00,,2013-04-03 00:13:00,
2013-04-02 20:25:00,43.0,13.0,30.23,WNW,302,4.0,9.0,29,0.00,,,0.00,,2013-04-03 00:25:00,
2013-04-02 20:34:00,42.0,12.0,30.23,West,279,3.0,7.0,29,0.00,,,0.00,,2013-04-03 00:34:00,
2013-04-02 20:47:00,42.0,12.0,30.23,West,279,3.0,7.0,29,0.00,,,0.00,,2013-04-03 00:47:00,
2013-04-02 20:53:00,42.0,12.0,30.24,WNW,282,2.0,8.0,29,0.00,,,0.00,,2013-04-03 00:53:00,
2013-04-02 21:04:00,42.0,14.0,30.25,WNW,298,2.0,8.0,31,0.00,,,0.00,,2013-04-03 01:04:00,
2013-04-02 21:13:00,42.0,14.0,30.25,WNW,298,2.0,8.0,31,0.00,,,0.00,,2013-04-03 01:13:00,
2013-04-02 21:23:00,41.0,12.0,30.25,WNW,286,2.0,5.0,30,0.00,,,0.00,,2013-04-03 01:23:00,
2013-04-02 21:33:00,41.0,13.0,30.26,WNW,296,2.0,6.0,31,0.00,,,0.00,,2013-04-03 01:33:00,
2013-04-02 21:42:00,41.0,13.0,30.26,WNW,296,2.0,6.0,31,0.00,,,0.00,,2013-04-03 01:42:00,
2013-04-02 21:53:00,40.0,13.0,30.26,WNW,296,0.0,3.0,33,0.00,,,0.00,,2013-04-03 01:53:00,
2013-04-02 22:04:00,39.0,14.0,30.27,WNW,296,0.0,3.0,35,0.00,,,0.00,,2013-04-03 02:04:00,
2013-04-02 22:13:00,39.0,14.0,30.27,WNW,296,0.0,3.0,35,0.00,,,0.00,,2013-04-03 02:13:00,
2013-04-02 22:25:00,39.0,15.0,30.27,West,261,0.0,5.0,37,0.00,,,0.00,,2013-04-03 02:25:00,
2013-04-02 22:34:00,38.0,15.0,30.28,West,279,1.0,4.0,39,0.00,,,0.00,,2013-04-03 02:34:00,
2013-04-02 22:44:00,38.0,15.0,30.28,West,279,1.0,4.0,39,0.00,,,0.00,,2013-04-03 02:44:00,
2013-04-02 22:52:00,37.0,14.0,30.28,WNW,283,0.0,2.0,39,0.00,,,0.00,,2013-04-03 02:52:00,
2013-04-02 23:06:00,37.0,16.0,30.29,WNW,283,0.0,0.0,41,0.00,,,0.00,,2013-04-03 03:06:00,
2013-04-02 23:14:00,37.0,16.0,30.29,WNW,283,0.0,0.0,41,0.00,,,0.00,,2013-04-03 03:14:00,
2013-04-02 23:23:00,35.0,16.0,30.28,WNW,283,0.0,3.0,45,0.00,,,0.00,,2013-04-03 03:23:00,
2013-04-02 23:38:00,35.0,16.0,30.29,WNW,288,0.0,4.0,46,0.00,,,0.00,,2013-04-03 03:38:00,
2013-04-02 23:44:00,35.0,16.0,30.29,WNW,288,0.0,4.0,46,0.00,,,0.00,,2013-04-03 03:44:00,
2013-04-02 23:53:00,35.0,15.0,30.29,WNW,288,0.0,2.0,44,0.00,,,0.00,,2013-04-03 03:53:00,